Location: Wien
(48.2082°N, 16.3738°E)
Time: 12:12:20
(UTC+02:00)

Tiros 1 despin weight - Pass Details

Date: 18 September 2024
Orbit: 573 x 615 km, 48.2° (Epoch: 06 October)

Event Time Altitude Azimuth Distance (km) Brightness Sun altitude
Rises 06:13:53 0° 275° (W) 2,882 - -4.5°
Exits shadow 06:15:02 - 275° (W) 2,429 ? -4.3°
Reaches altitude 10° 06:16:11 10° 275° (W) 1,979 ? -4.1°
Maximum altitude 06:20:45 88° 189° (S) 624 ? -3.4°
Drops below altitude 10° 06:25:20 10° 98° (E) 1,979 ? -2.6°
Sets 06:27:38 0° 98° (E) 2,881 ? -2.2°
